Regional Weather Roundup
Issued by NWS Wakefield, VA

Home | Current Version | Previous Version | Text Only | Print | Product List | Glossary Off
Versions: 1 2 3 4 5 6 7 8 9 10 11 12 13 14 15 16 17 18 19 20 21 22 23 24 25 26 27 28 29 30 31 32 33 34 35 36 37 38 39 40 41 42 43 44 45 46 47 48 49 50

000
ASUS41 KAKQ 201410
RWRAKQ

REGIONAL WEATHER ROUNDUP
NATIONAL WEATHER SERVICE WAKEFIELD VA
1000 AM EDT SAT SEP 20 2014

Note: "fair" indicates few or no clouds below 12,000 feet with no
significant weather and/or obstructions to visibility. * = Denotes
station may not report precipitation (e.g., rain,snow,etc.),
thunder or fog.

VAZ042-051-052>054-056-201500-
NORTHERN VIRGINIA

CITY           SKY/WX    TMP DP  RH WIND       PRES   REMARKS
WASH NATIONAL  MOSUNNY   72  61  68 SE3       30.27R
DULLES         MOSUNNY   65  60  84 CALM      30.27S
FORT BELVOIR   SUNNY     70  63  78 CALM      30.27S
QUANTICO       MOSUNNY   69  62  78 CALM      30.27S
FREDERICKSBRG* SUNNY     70  61  73 E5        30.25S
STAFFORD*      SUNNY     69  67  94 E3        30.30S
WARRENTON      SUNNY     68  67  98 CALM      30.25F
CULPEPER*      SUNNY     70  59  68 SW3       30.26F
MANASSAS*      MOSUNNY   64  64 100 CALM      30.27S
LEESBURG*      SUNNY     68  63  83 S6        30.27F
WINCHESTER     PTSUNNY   70  55  60 S3        30.25S
FRONT ROYAL*   SUNNY     68  57  68 SW6       30.24F
LURAY*         MOSUNNY   72  59  64 SW10      30.25F
$$

VAZ048-049-060>072-079>083-201500-
CENTRAL AND SOUTH CENTRAL VIRGINIA...AND NORTH CENTRAL NORTH CAROLINA

CITY           SKY/WX    TMP DP  RH WIND       PRES   REMARKS
RICHMOND       MOSUNNY   72  62  71 VRB5      30.24S
CHESTERFIELD*  SUNNY    N/A N/A N/A E7        30.25F
PETERSBURG*    SUNNY     69  62  78 NE7       30.24S
HANOVER        SUNNY     71  63  75 VRB3      30.26F
TAPPAHANNOCK*  SUNNY     72  62  72 E5        30.25S
CHARLOTTSVILLE SUNNY     67  59  75 CALM      30.26S
ORANGE*        SUNNY     70  59  68 S3        30.26F
LOUISA*        SUNNY     70  61  73 E3        30.25S
FARMVILLE*     SUNNY     70  59  68 CALM      30.23S
CREWE*         SUNNY     69  60  72 CALM      30.24F
FORT PICKETT*  SUNNY     69  62  78 NE3       30.24S
LUNENBURG*     SUNNY     69  61  75 NE3       30.24S
SOUTH HILL*    SUNNY     72  64  78 NE3       30.28S
LAWRENCEVILLE* SUNNY     70  64  81 NE3       30.22F
ROANOKE RAPIDS SUNNY     66  61  82 NE7       30.21F
RALEIGH        MOSUNNY   69  59  70 NE8       30.21F
$$

VAZ088>098-201500-
SOUTHEAST VIRGINIA

CITY           SKY/WX    TMP DP  RH WIND       PRES   REMARKS
NORFOLK        MOSUNNY   73  65  75 NE12      30.20S
VIRGINIA BEACH CLOUDY    73  66  78 NE16      30.19S
NORFOLK NAVAL  PTSUNNY   76  67  73 NE15      30.22S
WEST POINT*    SUNNY     75  65  69 E7        30.25F
NEWPORT NEWS   MOSUNNY   77  66  68 NE9       30.22F
LANGLEY AFB    MOSUNNY   74  67  80 E10       30.21S
FORT EUSTIS    SUNNY     74  70  86 NE6       30.20F
WILLIAMSBURG*  SUNNY     73  70  88 E3        30.23F
HR EXEC AP*    MOSUNNY   72  66  83 NE7       30.22F
FRANKLIN*      SUNNY     70  64  83 N3        30.21F
WAKEFIELD      SUNNY     72  65  78 VRB6      30.22F
$$

VAZ020-022-025-037-045-201500-
WEST CENTRAL AND SOUTHWEST VIRGINIA

CITY           SKY/WX    TMP DP  RH WIND       PRES   REMARKS
STAUNTON*      SUNNY     66  55  67 SW3       30.28F
HOT SPRINGS VA MOSUNNY   58  38  47 S5        30.34S
LYNCHBURG      SUNNY     67  57  70 CALM      30.27S
DANVILLE       SUNNY     68  59  73 E5        30.24S
SOUTH BOSTON*  NOT AVBL
MARTINSVILLE   SUNNY     69  61  74 NE6       30.28S
ROANOKE        MOSUNNY   66  58  75 CALM      30.28F
BLACKSBURG     SUNNY     63  61  94 CALM      30.30F
DUBLIN*        CLOUDY    64  62  96 CALM      30.29F
MARION*        MOSUNNY   65  57  75 E5        30.30F
HILLSVILLE*    MOSUNNY   62  55  76 E3        30.30S
RICHLANDS*     SUNNY     69  58  66 SE6       30.26S
WISE*          SUNNY     66  54  63 S9        30.27S
ABINGDON*      SUNNY     69  59  69 SE7       30.25S
$$

MDZ021>025-VAZ099-100-201500-
SOUTHERN MARYLAND AND THE DELMARVA PENINSULA

CITY           SKY/WX    TMP DP  RH WIND       PRES   REMARKS
PATUXENT RIVER MOSUNNY   72  62  71 VRB5      30.25R
BAY BRIDGE APT   N/A     72  59  64 S9        30.26S
LEONARDTOWN    MOSUNNY   72  61  68 SE6       30.26F
DOVER          MOSUNNY   72  65  78 E8        30.24S
GEORGETOWN     PTSUNNY   71  63  75 E9        30.26S
EASTON         SUNNY     73  68  83 CALM      30.29S
CAMBRIDGE      SUNNY     72  63  73 CALM      30.25S
SALISBURY      PTSUNNY   73  65  75 E5        30.24F
OCEAN CITY     CLOUDY    73  64  73 E12       30.24F
WALLOPS ISLAND CLOUDY    73  64  73 E8        30.24S
ACCOMACK*      PTSUNNY   72  61  68 E10       30.22F
$$

NCZ012>017-030>032-201500-
EASTERN NORTH CAROLINA

CITY           SKY/WX    TMP DP  RH WIND       PRES   REMARKS
ELIZABETH CITY CLOUDY    74  68  81 NE16      30.18S
AHOSKIE*       SUNNY     68  64  85 N7        30.21S
EDENTON*       CLOUDY    74  70  87 NE13      30.17S
CURRITUCK*     CLOUDY    73  66  80 NE10G18   30.19R
KILL DEVIL HLS CLOUDY    74  69  85 NE12G21   30.15R
MANTEO         CLOUDY    74  69  85 NE14      30.16R
CAPE HATTERAS  LGT RAIN  68  68 100 NE9G18    30.12S
TARBORO*       MOSUNNY   68  63  83 N7        30.21S
GOLDSBORO      MOSUNNY   68  67  97 N3        30.15F
WASHINGTON     PTSUNNY   74  65  75 N10       30.16S
GREENVILLE     MOSUNNY   68  64  88 NE10      30.19S
NEW BERN       CLOUDY    73  66  78 N10       30.14S
WILMINGTON     CLOUDY    70  64  81 NE13      30.10F
$$

VAZ048-201500-
ELSEWHERE

CITY           SKY/WX    TMP DP  RH WIND       PRES   REMARKS
HARRISBURG PA  CLOUDY    64  58  80 SE7       30.26S FOG
BALTIMORE      PTSUNNY   70  61  73 SE6       30.26S
ANNAPOLIS      CLOUDY    70  62  76 SE10      30.26R
ANDREWS AFB    MOSUNNY   70  63  78 SE6       30.26R
WILMINGTON DE  SUNNY     68  60  75 SE5       30.28S
PHILADELPHIA   MOSUNNY   69  59  70 E5        30.28F
WILDWOOD NJ*   CLOUDY    72  59  64 SE9       30.28R
ATLANTIC CITY  MOSUNNY   73  60  63 SE12      30.27S
HENDERSON NC   SUNNY     67  59  75 NE7       30.23S
GREENSBORO     MOSUNNY   66  60  81 NE7       30.23S
ROCKY MOUNT    MOSUNNY   68  62  81 NE9       30.20S
FAYETTEVILLE   PTSUNNY   67  61  81 N10       30.16S
CHARLOTTE      MOSUNNY   69  58  67 N8G21     30.22S
$$

VAZ100-201500-
MARINE

STATION/POSITION TIME  TEMP    WIND        PRES    WAVE   SWELL
                       AIR SEA DIR/SP/G            HT/PER HT/PER
                 (UTC) (F)     (DEG/KT/KT) (MB)    (FT/S) (FT/S)
44066 TX TWR #4  1400   69 72  110/ 14/ 17 1025.3F   4/ 8   3/ 8
CAPE MAY NJ      1400   71 75  110/ 11/ 13 1024.1S
LEWES DE         1400   72 71  120/  8/ 11 1024.2S
15NM E FENWICK I 1400   72 71              1023.8F   5/ 7
OCEAN-CITY-INLET 1400   72 71  120/  9/ 12 1023.7F
WACHAPREAGUE VA  1400   71 72   70/ 12/ 15 1023.4F
THOMAS POINT MD  1400   69 73  140/  7/  8 1025.7R
GOOSES REEF MD   1400   69     130/  8/ 10 1024.9F
COVE POINT MD    1400   68     110/  4/  5 1024.5S
SOLOMONS ISLAND  1400      75                N/A
BISHOPS HEAD MD  1400   69 70   60/  6/  8 1023.8R
PINEY POINT MD   1400          110/  5/  6   N/A
POTOMAC MD       1400   70      80/  6/  8 1023.6S
CAMBRIDGE MD     1400   68 74   70/  2/  3 1024.3S
LEWISETTA VA     1400   70 73  110/  6/  7 1023.8S
RAPPAHANNOCK LGT 1400           50/ 12/ 14 1023.9S
STINGRAY PT      1400   72      70/ 10/ 12   N/A
YORK RVR RNG VA  1400   72      50/  8/  9 1022.9F
YORKTOWN VA      1400   71 76   20/  6/  7 1023.0F
JAMESTOWN VA     1400   71      60/  4/  8   N/A
DOMINION TERM VA 1400   73      60/ 11/ 14 1023.0F
KIPTOPEKE VA     1400      78   80/ 11/ 16   N/A
CHES BAY BRIDGE  1400   72 75   50/ 19/ 21 1022.0S
CAPE HENRY VA    1400   72      60/ 22/ 23 1021.1F
CHESAPEAKE LGHT  1300   71      60/ 25/ 26 1022.6S
WILLOUBY STN VA  1400   72      60/ 11/ 12 1021.5F
S CRANEY ISL VA  1400           40/ 12/ 15 1022.4S
CAPE HENRY BUOY  1400      75                N/A     6/ 6   2/11
1ST LANDING BUOY 1400   73      60/ 17/ 21 1022.2S
CAPE CHARLES BUO 1400      74                N/A     6/ 5   3/ 8
OFFSHORE WE BUOY 1400      74                N/A     7/ 8   5/ 8
64NM E OF VA BCH 1400   73 77   40/ 21/ 25 1020.7F   8/ 8   7/ 8
DUCK PIER NC     1400   73 74   40/ 21/ 24 1020.5F
44100 DUCK FRF   1400      74                N/A     7/ 8   2/11
44056 DUCK FRF   1400                        N/A     6/ 7   2/11
OREGON INLET NC  1400   73 72   20/ 16/ 20 1020.6R
HATTERAS NC      1400   71 73   50/  8/ 12 1020.4R
DIAMOND SHLS NC  1400   79      90/ 17/ 21 1018.7R   8/ 9   5/ 9
CAPE LOOKOUT NC  1300   72      20/ 11/ 14 1019.3R
$$


USA.gov is the U.S. government's official web portal to all federal, state and local government web resources and services.